Wind_Gust
28 27 29 25 28 28 31 32 30 33 32 32 34 35 37 35 38 46 36 29 35 36 34 33 33 32 31 29 29 30 31 31 29 29 28 27 26 27 26 27 27 22 20 18 17 20 23 23 26 26 30 30 29 30 31 32 32 34 32 32 34 34 34 35 35 34 34 33 33 34 34 35 35 34 34 33 31 29 29 32 33 34 32 33 32 33 34
29 27 28 27 30 32 31 31 33 32 33 34 35 38 37 40 40 41 45 40 42 43 39 37 35 31 29 30 28 28 29 32 33 34 28 29 30 29 28 27 26 23 21 20 19 17 17 21 23 27 30 33 34 31 32 32 32 32 34 33 33 33 34 34 34 34 34 31 32 34 36 35 36 35 34 31 32 31 32 34 33 31 32 32 33 33 34
33 28 24 21 27 29 34 34 33 33 33 34 35 37 37 37 41 43 41 41 47 45 37 37 35 35 34 35 35 34 32 32 32 31 31 32 32 31 30 28 28 25 22 21 19 18 18 19 21 25 26 31 34 33 34 34 35 34 36 33 34 34 35 35 35 35 34 34 34 35 36 36 37 35 34 33 31 33 31 31 31 31 32 33 32 32 35
31 22 13 14 16 25 28 33 31 30 29 29 28 38 35 33 39 36 34 39 47 44 33 31 33 35 36 37 35 35 35 35 35 35 34 34 33 32 30 27 25 23 23 23 23 21 19 19 21 23 28 30 30 33 34 36 35 35 35 36 38 35 35 34 34 36 34 34 35 35 35 37 36 36 32 30 33 33 33 31 30 30 32 32 33 32 34
33 25 13 6 7 17 25 22 17 18 21 25 32 34 32 35 34 37 36 42 39 32 32 31 29 28 29 31 32 32 34 35 36 32 31 30 29 30 28 25 25 26 27 25 23 21 20 20 20 22 26 26 32 31 31 33 35 35 37 38 37 34 34 35 35 34 33 35 35 35 37 37 36 34 34 34 33 33 32 30 27 31 33 32 32 33 33
30 28 23 6 12 18 22 9 13 16 21 25 28 31 29 29 30 38 36 39 38 36 36 36 35 34 34 31 30 29 30 28 27 30 29 29 29 27 27 28 27 27 27 25 23 22 21 21 21 20 21 27 27 26 30 33 34 35 39 39 35 34 35 35 35 35 35 35 35 36 36 36 35 36 36 39 37 33 29 27 30 31 31 33 32 32 34
25 28 25 21 17 15 12 16 16 21 21 21 25 30 30 29 30 31 36 39 38 37 36 37 37 38 38 38 38 35 34 31 31 30 31 32 30 30 29 28 28 27 27 26 26 23 22 20 19 19 22 26 28 28 28 32 34 35 37 37 35 33 34 34 34 36 37 35 35 36 36 36 36 37 38 37 35 33 31 33 32 33 32 32 31 30 31
25 24 22 27 25 16 9 14 13 19 18 17 21 27 28 26 23 27 33 33 36 36 38 38 35 36 38 39 39 39 39 39 37 32 34 35 34 31 29 28 27 27 26 28 28 27 22 21 21 21 22 22 25 28 30 31 31 33 34 36 35 34 34 34 35 36 37 36 34 34 37 36 37 39 38 38 37 33 29 30 29 30 29 32 32 33 31
20 24 25 29 28 17 14 19 31 35 31 27 21 29 23 13 14 20 25 30 32 35 36 35 34 33 36 38 42 36 37 37 37 35 35 36 35 31 29 29 28 27 26 29 32 28 22 21 22 21 21 22 23 26 29 33 32 33 32 34 34 33 32 35 37 38 38 38 36 36 37 38 39 40 37 38 35 32 33 32 30 30 30 30 30 31 32
20 26 31 30 23 23 26 27 30 31 32 29 26 17 26 11 13 16 23 27 31 31 31 33 31 29 31 36 38 31 31 34 34 36 35 35 35 33 32 31 28 29 26 26 28 26 23 21 21 21 21 23 25 27 28 29 30 33 33 34 34 35 36 35 37 39 39 39 38 38 39 41 42 39 38 36 37 34 38 34 31 32 33 30 30 31 30
24 24 28 27 24 20 23 35 37 39 38 33 21 11 21 17 28 19 24 28 26 25 29 33 29 29 33 36 31 23 24 22 24 27 30 31 31 29 27 27 28 29 29 29 28 30 27 25 23 21 22 23 26 28 28 29 30 32 34 33 34 35 35 36 36 36 36 36 37 37 38 40 37 38 38 39 34 31 36 31 26 28 27 32 33 32 32
21 26 25 24 17 20 29 36 39 42 37 33 20 19 31 33 33 29 29 30 25 27 27 28 27 26 31 33 31 27 29 26 25 27 30 32 29 28 27 28 28 29 29 30 30 31 32 26 22 23 22 25 24 27 29 30 31 34 33 32 33 34 33 33 34 36 34 34 35 36 37 33 33 36 35 33 34 35 28 31 27 32 29 33 34 32 32
27 21 26 23 18 16 30 36 41 36 35 26 25 34 37 36 33 31 31 27 24 24 26 25 27 28 34 37 40 41 39 37 31 29 31 31 28 29 28 28 24 30 31 32 35 32 31 26 23 22 22 24 26 26 27 29 30 33 32 32 31 33 33 33 34 35 34 35 36 35 35 33 31 31 33 33 34 33 32 30 28 30 30 31 30 29 29
30 27 29 27 19 20 37 39 37 28 30 34 34 32 29 31 32 31 28 31 27 27 27 27 27 32 35 38 39 38 37 36 33 33 31 30 29 28 26 25 27 30 32 30 33 34 30 28 25 25 23 23 24 26 28 31 29 29 31 28 28 28 31 33 33 34 34 32 32 32 32 31 30 32 32 35 34 32 33 30 28 29 26 28 30 29 28
25 24 29 27 30 27 38 41 30 24 34 28 30 33 29 27 30 31 32 29 27 29 31 31 35 38 38 33 31 31 32 31 30 30 30 29 27 27 26 27 28 30 30 30 33 32 30 24 23 24 22 22 24 25 30 29 29 29 29 28 29 28 29 31 32 32 30 28 27 31 30 31 29 31 32 32 31 29 28 27 26 27 28 28 27 28 28
25 27 27 23 29 33 36 34 32 38 30 29 28 33 33 29 29 29 29 29 29 29 31 36 41 36 35 32 28 25 25 25 25 25 26 26 25 25 26 26 28 28 31 31 32 31 30 25 23 24 22 23 24 25 29 29 27 31 33 28 29 29 28 28 30 30 29 30 32 28 23 27 29 33 33 30 28 30 31 31 28 29 26 28 29 28 30
15 23 25 23 28 30 32 31 31 31 30 30 31 31 31 32 33 31 30 30 32 30 32 35 39 36 40 38 28 22 21 22 23 23 23 23 23 24 25 27 27 28 31 30 34 33 32 24 22 23 21 22 20 25 23 25 29 28 33 33 29 30 30 30 29 31 28 30 29 28 24 29 32 34 30 27 26 24 27 31 29 31 29 28 29 29 30
25 23 22 24 27 33 35 30 29 32 32 32 35 33 30 31 34 31 32 33 34 32 32 40 38 39 39 39 30 18 19 21 22 21 22 24 23 23 24 25 26 28 29 29 34 35 31 25 23 20 19 20 20 23 23 25 28 28 30 34 30 30 27 27 29 28 27 28 29 28 32 32 30 31 29 26 24 24 30 34 32 34 28 29 29 28 28
27 21 23 28 32 33 34 33 32 29 31 35 36 35 35 33 33 30 31 33 33 32 34 37 37 37 37 34 28 21 18 21 21 21 24 23 24 23 21 20 20 24 26 30 33 34 29 24 22 19 18 19 19 19 24 29 32 32 29 30 27 25 25 26 27 27 26 29 32 28 29 32 30 30 27 25 25 24 30 32 31 28 26 27 30 28 28
24 28 28 30 33 36 27 29 36 38 39 39 37 36 33 35 33 33 34 34 33 30 35 38 36 37 38 37 34 30 21 19 20 20 19 17 19 20 21 21 20 22 25 26 29 28 28 23 19 15 17 18 18 18 22 22 24 25 25 26 29 27 27 26 26 27 29 17 25 28 30 31 31 27 26 29 33 37 37 34 31 29 28 28 33 31 30
29 23 24 36 35 24 23 31 30 36 39 39 38 38 38 36 35 36 39 36 34 32 33 38 38 37 37 35 33 32 30 26 21 20 18 18 17 17 17 17 19 22 22 26 24 22 23 22 21 14 14 16 16 23 20 18 19 21 21 21 22 23 25 26 27 23 26 22 26 28 29 27 26 23 26 28 31 30 29 33 32 31 32 31 30 28 30
25 31 37 34 38 36 38 35 36 38 38 36 38 38 38 36 35 38 39 38 34 30 27 30 34 36 37 40 36 31 28 26 24 22 23 22 21 16 15 18 20 21 21 21 21 18 19 19 19 16 15 15 14 18 20 17 18 20 20 20 19 20 23 20 19 20 21 24 23 23 29 27 19 14 10 12 23 29 30 16 19 21 21 32 35 34 31
28 31 29 28 27 32 34 36 38 38 35 36 39 39 37 36 36 36 35 37 35 32 28 29 31 31 35 36 33 32 33 30 27 27 25 26 27 24 16 19 22 22 20 18 15 16 17 17 19 19 16 16 14 15 18 18 16 19 22 19 20 21 18 21 17 17 19 20 23 21 20 23 21 18 13 13 18 15 10 17 20 22 20 18 22 24 29
24 24 27 27 31 35 39 37 36 37 34 37 39 37 36 37 36 35 35 32 33 32 30 27 28 29 30 32 34 32 32 31 31 29 25 23 21 22 16 14 15 17 18 21 18 16 13 15 16 17 18 19 21 18 15 15 18 17 16 18 18 19 18 17 16 18 20 20 20 21 19 20 22 23 20 16 11 14 15 12 16 17 19 18 21 21 18
26 30 28 29 32 36 33 30 32 30 34 36 38 37 38 37 36 36 34 32 30 31 32 32 31 27 29 29 29 31 27 27 29 25 22 18 20 24 21 17 18 17 18 17 19 19 14 14 17 18 19 20 20 20 18 19 17 17 15 16 16 17 16 19 18 18 19 18 17 20 18 20 21 21 20 18 17 13 15 13 10 10 15 18 21 20 17
22 23 28 32 30 28 28 34 28 30 37 35 36 36 37 32 36 35 33 30 29 30 30 29 32 30 24 27 25 27 31 31 28 24 28 28 26 22 26 22 18 19 20 18 20 22 20 16 17 17 18 19 20 19 17 17 17 15 18 17 15 16 16 15 15 19 16 16 18 21 23 24 23 18 16 19 19 18 18 16 14 11 9 10 16 16 12
18 22 28 32 28 26 27 31 41 39 36 34 33 35 35 36 32 33 30 30 29 30 30 31 32 32 29 24 25 28 28 28 28 27 25 25 23 21 21 20 20 22 20 20 21 19 17 18 17 19 19 18 17 16 17 16 15 15 16 17 16 12 12 10 17 16 16 16 17 17 19 21 19 17 19 18 17 20 22 23 25 24 20 14 10 14 15
21 24 24 26 33 36 37 35 33 32 32 32 34 34 34 35 35 34 35 36 35 35 33 33 35 33 33 31 26 24 25 25 26 27 26 27 24 22 21 21 22 21 22 21 20 19 19 19 19 19 20 20 20 17 15 15 16 15 15 16 15 11 11 9 13 14 12 13 15 16 16 18 18 19 16 17 18 19 16 16 19 20 18 17 18 8 15
25 25 25 24 26 29 32 32 29 30 33 33 33 33 34 37 37 35 35 36 35 34 34 36 34 33 32 30 29 28 22 23 24 25 24 24 23 24 22 22 23 23 25 23 22 22 20 20 20 21 21 19 19 21 20 17 15 16 16 14 13 12 11 10 9 9 8 11 13 10 7 9 12 14 15 16 15 17 17 21 21 22 27 25 23 16 11
27 27 26 26 26 27 31 30 33 33 35 36 37 36 35 35 37 37 38 35 35 36 35 35 35 35 35 30 27 24 26 21 20 20 22 22 22 24 23 24 23 23 24 26 26 25 24 23 24 25 24 22 20 17 19 18 17 16 13 13 14 17 16 14 10 11 11 12 12 10 13 13 14 16 15 16 18 19 21 22 24 24 27 25 17 26 23
29 26 24 23 25 26 29 30 31 32 32 33 35 35 36 36 35 37 38 37 36 36 36 37 35 35 34 34 28 25 23 22 22 25 23 20 21 24 25 27 30 26 24 22 22 22 22 22 23 24 25 24 22 19 17 17 16 15 14 16 12 10 11 12 9 14 11 12 13 14 14 16 16 15 15 17 18 17 18 22 24 25 23 26 26 24 24
31 27 23 23 27 28 30 31 32 33 34 34 34 36 35 36 36 37 36 37 36 35 35 36 35 35 36 35 33 27 26 24 23 26 26 22 22 26 28 27 24 19 24 23 22 23 23 22 22 23 23 21 24 24 20 17 16 16 16 11 16 15 13 11 10 11 10 11 13 13 15 17 18 16 17 18 20 19 20 21 20 19 24 26 26 24 23
30 33 34 36 36 34 33 34 35 35 34 34 33 31 31 31 32 33 34 33 35 36 35 35 35 35 35 35 31 29 26 25 24 25 26 25 25 25 26 24 24 23 24 25 22 21 22 23 23 25 25 22 22 22 23 19 16 15 15 15 15 15 10 9 9 12 10 12 12 12 13 13 15 19 19 18 17 17 20 20 21 18 18 21 23 23 23
24 24 25 25 26 31 31 34 32 32 32 31 31 32 32 31 33 33 34 33 32 33 34 35 35 34 34 35 32 27 27 27 27 27 28 27 24 22 21 23 24 23 23 24 25 26 24 24 24 24 23 22 21 20 20 21 17 16 16 16 14 13 13 12 12 13 12 11 11 12 11 12 15 18 18 17 17 17 19 22 20 20 20 18 19 21 19
24 24 25 24 23 24 25 28 29 30 31 32 32 32 31 31 33 33 32 32 32 34 33 34 33 33 34 32 33 32 30 29 29 27 27 27 25 23 21 22 24 26 26 27 28 27 26 26 27 24 20 21 22 22 22 21 17 16 14 15 14 14 13 12 12 11 12 13 13 13 13 14 14 9 12 16 17 14 13 17 21 21 20 18 19 17 19
25 25 24 24 25 25 25 26 26 27 28 28 29 30 30 31 32 32 33 32 31 32 32 33 32 32 32 32 32 32 30 30 30 30 28 27 26 23 24 26 27 28 28 26 28 28 27 29 27 31 23 18 22 22 21 19 17 17 14 15 14 14 14 14 14 13 13 13 13 12 13 11 11 11 12 14 15 14 15 15 17 15 14 16 19 19 19
22 24 25 26 25 25 25 26 26 27 27 28 29 28 30 29 29 29 28 29 30 30 32 32 32 32 32 31 31 31 27 27 29 31 30 27 27 24 25 25 27 26 27 27 31 30 27 30 30 29 25 24 21 21 21 17 17 14 12 14 14 14 14 15 14 14 16 14 14 14 12 11 13 14 13 14 13 14 14 14 14 13 14 16 16 18 18
23 23 24 25 26 25 24 25 26 26 27 27 27 26 27 29 30 30 29 28 29 30 31 30 29 29 28 28 28 28 29 29 30 31 30 29 29 25 24 25 26 26 27 29 30 28 25 29 26 21 26 26 25 22 20 19 15 13 14 13 12 12 14 14 14 15 14 13 10 15 12 14 13 13 13 14 14 13 12 13 13 14 15 16 16 15 14
23 24 23 25 24 24 25 25 26 25 27 27 28 28 27 29 27 27 28 28 28 29 30 30 30 28 27 28 29 29 29 30 29 30 29 29 27 25 21 25 25 23 22 26 26 24 26 25 25 24 24 27 26 24 19 18 19 13 13 11 11 12 13 15 16 14 13 12 13 13 11 12 12 12 13 13 13 11 9 13 15 14 15 16 15 15 15
24 24 25 25 24 25 25 26 26 26 25 25 26 28 28 28 28 28 27 28 28 28 29 28 30 31 30 29 29 29 29 29 29 28 29 26 24 26 23 21 28 25 30 27 29 27 23 21 23 23 24 25 24 23 21 25 19 13 14 13 11 14 14 12 12 15 15 14 13 8 10 11 12 11 12 12 13 12 13 14 14 16 17 16 16 14 13
24 25 25 24 24 24 25 26 26 25 25 25 25 25 26 27 27 26 27 28 28 28 29 28 29 30 30 29 28 28 28 28 28 26 27 24 24 24 23 23 28 28 33 35 29 27 27 21 26 27 26 26 23 21 23 21 19 17 14 14 13 14 14 13 12 12 10 9 11 12 13 13 13 13 12 13 13 12 12 13 13 13 14 15 15 14 14
24 24 23 24 23 24 24 25 24 25 25 24 24 24 26 26 26 26 26 26 27 27 28 28 23 29 29 28 27 26 25 27 28 26 26 24 25 24 24 24 28 28 31 32 26 24 27 27 28 21 30 30 26 25 27 20 17 16 17 16 14 13 13 14 14 13 11 10 11 15 16 16 16 16 15 14 14 14 14 13 13 12 13 14 15 15 15
24 24 24 24 24 24 25 25 25 25 24 24 25 25 26 24 25 26 26 26 26 27 28 28 29 27 28 29 28 26 24 26 27 26 25 23 22 23 24 24 27 28 26 31 29 25 27 26 29 28 31 32 26 26 21 20 22 22 21 21 21 20 17 13 13 12 12 13 13 13 14 15 17 17 16 14 14 14 15 15 15 14 13 13 14 14 14
22 23 23 24 24 24 24 24 25 26 26 25 24 23 24 25 25 26 26 26 26 26 27 27 28 29 29 29 29 28 26 26 26 25 25 24 22 19 26 28 26 25 23 31 26 25 25 26 27 32 28 28 29 26 20 20 21 22 21 22 21 21 21 21 20 18 16 15 12 12 15 14 16 16 15 15 15 15 14 14 14 14 13 13 13 13 13
22 23 23 23 23 23 23 24 25 25 25 24 23 22 22 24 25 25 25 25 25 25 24 26 27 27 28 29 28 26 25 25 24 24 24 26 25 24 27 21 28 24 26 27 25 25 23 29 32 29 25 28 26 22 24 24 22 22 21 21 21 21 21 21 21 21 20 20 18 17 14 16 17 17 18 17 13 15 14 14 14 14 13 13 12 13 12
21 22 21 16 23 22 23 23 24 23 23 23 22 21 22 24 25 24 24 25 25 25 23 24 25 26 27 27 26 25 22 23 23 19 20 19 22 26 27 21 24 21 28 25 23 25 25 24 27 27 26 25 23 25 25 23 22 22 22 22 21 20 21 20 20 20 21 21 20 20 21 21 22 21 19 18 18 17 15 13 13 14 14 13 12 12 12
21 22 22 22 23 21 22 23 23 23 22 22 23 23 23 24 24 24 24 24 24 24 23 22 24 25 25 25 26 27 29 27 21 18 21 21 21 20 21 19 18 22 26 25 23 25 29 32 28 24 25 22 21 26 25 24 23 22 22 22 22 22 21 20 19 19 20 21 20 19 16 19 19 18 17 16 19 18 17 16 16 16 15 14 14 13 13
21 22 23 23 24 23 23 22 23 23 22 22 22 23 20 24 23 21 21 21 23 22 22 21 21 22 25 25 23 21 22 23 26 23 23 24 23 22 22 22 26 24 27 14 18 17 25 28 27 24 22 20 26 26 24 23 23 22 22 23 23 23 23 22 22 21 20 20 20 21 21 21 21 20 21 21 21 21 20 18 18 15 14 15 16 15 14
20 21 23 22 22 21 21 20 22 21 22 22 22 22 22 23 22 21 22 23 24 23 23 22 22 21 21 23 23 23 22 20 20 23 25 23 23 23 23 20 19 21 24 22 22 21 22 26 26 25 20 18 26 25 23 23 23 22 22 22 21 22 21 21 22 21 21 21 20 19 20 21 21 21 21 21 21 21 21 21 22 21 19 17 16 15 16
20 22 22 22 22 22 22 22 21 21 22 21 22 22 22 22 22 22 21 23 24 22 23 23 23 22 22 22 22 22 22 22 21 21 22 22 21 21 22 22 22 21 21 24 20 23 16 23 23 25 25 24 25 24 24 24 23 24 22 23 22 21 22 23 15 19 20 20 22 20 20 21 21 20 20 21 22 22 22 21 21 18 16 18 22 21 19
19 18 21 22 22 20 19 19 19 19 20 20 20 20 20 20 21 21 20 21 22 22 23 22 21 21 21 22 22 23 22 22 22 19 22 22 23 20 20 21 22 21 24 24 23 24 23 23 26 26 25 23 24 23 23 22 22 23 22 24 24 24 23 24 22 23 23 22 21 23 20 17 18 18 20 21 20 21 22 21 23 22 22 23 23 21 20
16 18 20 20 18 19 20 19 17 15 17 17 17 19 18 19 19 19 19 13 22 22 23 23 24 21 21 21 23 23 23 24 22 22 19 23 25 23 22 20 23 23 24 23 23 22 22 23 20 21 21 25 23 23 17 19 24 24 23 22 19 23 23 23 23 22 22 23 23 23 24 23 21 22 22 22 21 21 21 22 22 22 21 22 22 21 21
Wind_Speed
17 17 19 17 15 15 17 19 19 20 19 19 19 21 20 19 16 20 22 18 21 20 19 17 17 17 18 18 16 15 15 16 16 17 17 16 14 14 14 16 17 14 12 10 10 12 13 14 16 16 17 17 16 16 16 17 17 17 16 17 18 17 17 17 17 17 17 17 16 17 17 18 19 18 17 16 16 15 14 15 14 18 18 17 16 18 19
19 18 18 17 18 18 17 18 18 19 20 21 22 23 23 23 23 24 26 27 26 24 22 21 21 19 17 17 15 14 15 16 19 21 17 15 18 18 17 16 15 14 12 12 11 10 10 12 14 16 16 18 19 18 17 16 17 17 17 18 18 18 18 18 18 18 18 16 17 17 18 18 19 20 18 16 15 15 16 17 17 17 17 15 16 17 19
18 17 14 12 15 14 17 18 16 15 15 17 20 20 23 24 24 24 24 25 25 23 21 21 20 19 18 18 18 18 17 17 18 18 19 19 19 19 18 17 17 15 14 13 11 11 9 9 11 13 14 16 18 19 18 18 18 16 17 18 18 18 19 18 18 19 18 18 18 19 19 19 20 21 20 15 16 18 16 16 17 17 16 16 14 17 19
14 12 7 5 7 11 13 16 16 15 15 16 11 11 12 10 16 19 21 19 18 17 17 16 14 14 16 19 19 19 19 21 21 21 21 21 20 20 19 16 14 13 13 12 12 11 10 9 10 11 11 13 16 18 19 20 19 18 19 19 21 20 18 18 19 20 18 19 19 19 19 20 20 20 17 17 16 16 15 17 16 17 18 16 14 15 16
12 14 5 2 2 6 8 6 7 12 12 12 14 15 17 16 17 15 14 16 15 16 18 19 17 16 15 15 15 16 19 21 23 21 19 18 18 18 17 14 12 12 13 13 11 11 12 10 10 11 11 13 13 13 16 18 18 18 17 20 22 19 18 19 19 18 18 19 20 19 19 20 19 19 19 17 19 17 17 15 15 17 18 15 14 17 16
10 14 14 1 3 5 6 1 7 7 7 13 14 14 14 15 11 11 14 18 21 22 20 21 21 21 19 16 15 15 15 15 16 18 18 17 17 16 15 13 13 12 11 13 11 10 11 12 13 12 10 9 12 13 14 15 19 19 20 22 20 19 19 19 19 19 19 19 20 20 20 19 20 20 20 21 19 16 14 12 12 15 19 17 14 15 17
8 13 13 8 8 1 4 4 8 11 11 12 16 20 19 18 16 17 17 17 20 21 21 22 22 23 23 23 23 21 20 19 17 17 18 18 18 17 17 15 13 11 12 14 16 14 13 11 11 10 10 9 11 13 14 17 20 20 20 20 20 19 19 19 19 19 20 20 20 20 20 20 19 21 20 20 18 15 12 14 15 15 17 16 13 14 16
9 8 7 9 6 5 2 6 6 9 10 10 14 17 15 15 11 13 15 17 18 20 23 23 20 21 22 20 21 21 22 22 22 19 18 18 17 18 16 16 14 11 9 12 15 16 14 12 11 11 10 8 10 11 12 16 17 19 19 20 20 19 19 19 20 20 20 20 20 19 20 20 20 21 22 20 19 18 15 14 15 15 11 13 14 15 15
7 8 10 11 2 7 8 6 9 11 12 13 11 15 9 7 2 8 12 18 18 18 19 20 19 19 18 17 17 18 20 22 23 22 19 17 17 17 16 16 16 13 9 11 18 18 14 11 11 10 9 8 10 11 12 15 18 17 18 20 20 19 19 20 20 20 20 21 20 20 20 20 21 22 21 22 19 15 13 11 14 14 13 12 13 13 15
5 10 12 8 9 5 8 14 17 19 19 17 16 2 3 4 5 7 12 17 19 19 19 19 19 17 15 14 15 15 16 18 20 21 19 20 20 18 17 19 16 11 12 11 16 15 15 13 12 10 10 9 10 11 13 15 16 15 16 18 18 19 19 19 19 19 20 21 20 20 20 21 21 20 20 18 20 16 16 17 14 13 12 13 12 13 16
8 9 9 7 5 3 9 16 21 23 20 22 10 2 2 5 19 13 14 18 16 15 16 20 18 12 12 13 13 11 14 10 9 14 17 18 19 18 15 12 11 14 12 14 16 19 17 15 13 12 12 12 11 12 13 14 15 18 17 18 16 16 18 19 19 19 19 20 20 20 20 19 18 20 18 19 16 14 15 14 13 12 12 12 13 12 15
6 10 9 8 2 3 16 20 21 21 21 20 8 7 9 16 20 18 17 18 16 14 15 15 14 12 12 13 14 16 18 16 3 4 14 19 18 13 11 12 12 13 15 16 17 18 20 17 14 14 13 11 12 13 13 13 15 18 18 16 16 18 20 18 16 17 16 18 18 18 19 17 17 19 15 13 11 13 13 14 12 12 12 12 14 16 16
9 11 7 6 2 2 16 20 24 17 20 12 10 13 13 19 19 19 18 17 15 14 16 12 11 11 13 19 23 25 24 23 20 11 15 18 16 17 16 13 11 13 13 13 17 19 18 16 12 12 11 10 11 12 14 14 16 18 19 18 19 19 18 16 17 19 18 19 19 18 19 18 15 16 14 11 12 14 14 12 12 13 14 16 16 15 14
9 8 10 8 3 4 19 20 17 14 14 11 17 8 13 16 19 18 16 19 17 15 14 14 13 17 20 23 24 23 22 22 20 19 19 18 17 17 15 15 14 12 12 15 18 21 19 16 14 11 13 10 10 11 12 15 16 16 18 16 15 15 16 18 18 18 18 16 16 15 17 15 13 12 10 13 13 15 14 13 11 15 13 12 11 13 12
7 6 9 9 9 6 22 25 13 14 11 10 8 12 15 14 17 18 19 17 16 16 17 19 19 23 24 22 18 18 18 17 18 18 18 18 15 15 15 15 13 11 13 14 17 20 17 15 10 11 13 12 10 9 7 13 14 15 15 15 16 16 16 16 16 17 17 15 13 12 12 15 15 12 12 14 14 14 14 13 12 12 13 11 13 13 12
8 8 7 5 6 11 14 17 13 15 10 10 13 12 14 16 14 14 13 17 17 17 16 20 24 23 21 21 18 15 13 13 13 13 14 16 14 13 14 15 14 13 13 14 16 19 16 15 10 11 12 10 9 8 11 11 5 11 18 17 15 16 15 16 16 16 16 15 13 14 13 13 13 13 15 14 14 11 11 10 10 11 11 10 8 8 9
3 7 9 8 10 10 13 15 14 17 16 16 18 18 12 13 13 17 12 15 19 19 20 20 23 22 26 25 18 13 9 11 11 10 13 13 13 13 13 13 12 11 12 14 18 19 18 15 12 12 11 10 6 9 12 8 5 8 14 19 15 16 17 16 16 17 15 13 12 12 13 12 13 14 14 14 12 11 14 12 13 13 11 11 11 12 11
12 11 5 7 10 15 17 14 14 17 18 19 19 20 14 13 13 13 13 18 20 20 18 19 22 22 22 23 20 11 10 10 10 10 10 9 12 13 12 11 9 9 11 15 19 22 20 16 12 11 9 8 8 10 9 8 9 8 11 18 18 16 15 15 16 16 13 13 14 15 13 13 14 12 13 13 11 11 10 16 16 16 14 13 13 13 13
13 5 9 11 17 18 17 16 17 16 17 18 19 19 19 17 15 16 19 19 19 19 17 18 22 23 23 21 18 13 10 10 11 9 11 13 14 15 12 12 12 10 11 13 18 22 20 15 12 10 7 7 8 9 8 8 6 7 8 13 15 14 13 13 12 11 14 13 14 14 13 11 11 13 10 9 10 12 15 13 13 13 11 13 14 14 12
9 11 13 17 19 19 12 13 17 20 22 21 20 19 19 19 17 18 21 21 20 19 18 15 18 22 23 23 21 17 13 9 10 10 7 8 9 10 10 11 12 12 13 16 18 18 17 13 9 7 6 6 5 3 4 3 4 4 7 12 16 16 14 13 12 13 15 14 15 11 11 14 15 12 8 9 10 12 15 15 15 11 11 14 16 15 14
12 12 14 20 22 9 10 18 17 18 20 21 22 24 23 22 19 21 25 22 20 18 18 17 19 23 25 23 23 19 16 15 12 9 7 7 9 9 8 8 8 10 12 15 15 13 12 11 11 9 5 4 5 11 4 6 6 3 6 9 8 13 14 11 11 10 12 12 12 11 12 13 12 9 11 11 12 12 12 12 12 15 16 15 15 15 14
10 12 16 19 15 14 17 18 21 22 21 20 22 22 22 22 19 20 24 24 22 18 14 14 15 20 22 26 23 19 16 15 14 13 14 13 12 9 7 8 8 7 11 13 13 10 7 8 10 8 4 3 1 10 9 6 6 7 7 9 10 7 9 6 7 9 8 9 10 12 15 13 10 7 3 7 14 12 10 13 15 14 14 14 12 11 11
11 16 16 14 14 15 16 20 21 20 19 20 22 22 23 23 22 22 22 23 22 20 17 13 13 16 18 22 21 19 20 18 15 16 16 15 15 14 10 8 8 8 10 11 7 6 6 5 7 8 6 4 5 5 10 10 8 4 3 6 8 7 6 7 8 8 9 10 11 10 10 10 11 8 5 7 12 10 2 11 17 19 16 15 17 16 14
12 13 14 15 13 15 19 20 20 19 18 20 22 21 21 22 23 22 22 20 20 19 19 17 14 11 15 16 20 20 17 19 20 18 16 14 13 13 10 7 6 9 11 14 12 10 7 6 6 8 9 9 10 7 6 2 7 6 8 7 6 6 4 6 8 6 5 10 11 11 10 10 10 10 9 8 4 9 12 3 14 15 17 15 18 15 14
11 14 14 15 16 17 16 16 17 17 19 20 19 20 21 22 22 22 20 19 19 19 18 18 20 14 11 15 15 18 17 15 16 16 15 11 13 14 12 10 4 6 8 7 10 9 8 8 9 9 10 11 10 10 8 6 2 4 5 4 2 3 4 9 6 5 7 6 3 6 9 10 10 9 10 9 9 6 6 12 5 7 12 14 16 15 14
11 12 14 16 15 13 13 16 16 17 20 20 19 19 22 21 23 21 19 18 16 17 18 18 19 19 14 13 13 14 18 19 16 15 15 16 15 13 16 15 10 7 6 4 5 5 8 9 9 9 9 10 10 10 9 7 5 4 4 2 3 3 4 8 7 9 9 7 8 6 5 5 7 9 9 10 10 9 7 6 5 7 9 5 6 10 7
9 12 15 17 14 13 13 16 18 21 20 19 19 20 21 21 21 19 17 17 18 17 17 18 20 19 17 13 13 13 14 17 18 14 11 13 13 12 11 10 11 10 10 8 5 6 9 9 8 8 9 10 9 9 9 8 6 5 5 4 3 4 4 3 5 5 5 4 5 7 9 10 9 8 8 8 8 9 8 9 10 8 7 4 6 8 7
10 11 11 13 15 17 19 20 19 18 18 18 20 20 20 19 20 20 21 22 21 21 19 20 20 20 19 17 17 15 13 14 14 15 14 13 14 12 9 10 11 12 12 12 10 10 10 10 10 9 10 11 10 9 8 8 8 7 6 5 5 4 4 3 2 7 3 0 3 5 6 8 9 9 8 8 8 7 7 7 9 8 6 6 7 7 13
11 12 12 12 12 13 15 15 15 17 18 18 18 18 20 22 22 20 21 21 21 20 19 22 21 20 18 17 15 15 13 12 14 14 15 14 14 14 13 11 13 14 14 13 12 13 11 10 11 11 12 11 10 11 11 9 7 6 5 5 4 3 3 2 3 1 1 1 2 1 2 3 6 6 6 7 7 7 7 7 7 6 8 9 8 6 6
12 13 13 12 12 15 16 15 16 17 17 18 20 19 20 21 20 19 20 21 21 20 21 21 20 20 20 18 13 11 14 13 11 12 13 13 13 14 14 13 11 11 11 12 14 14 13 13 13 14 13 13 11 10 10 9 8 8 7 7 7 7 7 7 3 2 0 0 2 4 3 3 5 6 6 6 7 7 7 7 9 10 10 8 7 9 9
14 14 14 13 14 14 15 16 15 17 17 18 19 19 20 20 20 19 20 20 19 19 21 21 20 20 20 19 16 13 13 12 11 10 10 11 13 13 14 13 12 11 11 11 11 12 12 12 12 13 13 13 12 11 9 7 7 7 7 7 6 8 10 11 8 5 2 2 3 3 3 3 4 5 6 6 7 7 7 7 8 9 9 10 10 9 8
15 15 14 12 13 15 16 15 16 17 18 18 19 20 20 20 22 22 21 19 20 20 21 22 21 21 20 19 19 17 14 14 13 12 11 11 12 15 16 16 12 12 14 13 12 13 13 12 12 13 14 12 13 13 11 8 7 7 6 6 6 5 7 10 4 5 4 2 2 2 4 4 4 5 5 7 7 7 8 8 8 8 9 9 11 10 10
14 16 16 18 18 17 16 17 17 18 18 19 17 16 17 16 17 17 17 18 19 19 19 20 20 20 20 19 17 16 15 13 13 14 15 14 12 11 13 13 13 13 13 13 12 11 12 12 11 14 14 12 12 13 13 10 8 7 7 6 6 6 5 5 4 5 4 3 2 1 3 3 4 5 6 6 7 7 8 8 8 9 8 9 10 11 11
12 12 14 14 14 15 18 19 17 16 16 15 15 16 16 16 17 17 18 18 18 19 19 19 20 20 19 19 19 16 16 14 12 13 15 15 14 12 11 11 12 13 12 13 14 13 12 12 13 11 12 12 12 11 11 12 8 7 7 7 6 6 6 6 6 5 5 5 4 4 3 3 3 4 4 5 5 6 6 7 7 8 7 6 6 8 11
13 14 14 14 14 14 14 14 15 15 15 16 16 16 16 16 17 17 18 18 18 17 18 18 18 18 19 18 18 18 17 16 16 15 15 15 14 12 12 12 14 14 14 15 16 14 15 15 16 14 11 10 12 11 11 10 9 7 7 6 6 6 6 6 6 5 5 4 4 4 4 4 3 3 3 4 4 4 5 5 6 7 6 7 7 7 11
11 12 12 12 13 14 15 14 14 15 14 14 15 15 15 16 19 19 19 18 16 17 17 18 18 17 17 18 17 18 17 16 16 17 15 15 14 12 12 14 15 15 15 14 16 15 15 16 22 24 14 8 11 12 11 9 8 8 6 6 6 6 7 6 5 6 6 5 6 6 6 7 6 6 5 4 4 4 5 5 5 5 6 7 7 9 10
12 12 12 13 13 14 15 14 13 14 14 14 14 14 16 17 18 17 17 16 17 17 17 17 17 17 17 17 17 17 15 15 14 15 15 14 14 13 13 13 14 14 14 14 16 16 15 16 22 21 14 12 11 12 13 14 8 5 5 6 6 6 6 6 6 6 5 6 6 6 6 5 5 5 5 5 5 5 5 6 6 6 6 7 8 9 9
13 13 13 12 13 14 13 13 13 13 13 14 14 13 14 15 16 16 16 15 16 16 17 16 16 16 14 14 14 15 16 16 16 17 17 16 16 13 11 13 12 12 13 13 15 14 12 18 21 14 13 13 13 11 13 16 13 7 6 6 6 5 6 5 6 6 6 6 4 5 4 5 5 5 5 5 5 5 5 6 6 7 6 7 7 8 7
13 12 12 12 12 12 13 13 13 12 13 14 13 13 13 15 16 17 16 16 15 16 16 16 16 16 15 16 15 15 16 17 16 16 16 16 14 13 8 12 12 11 10 13 14 12 13 15 14 12 11 13 14 13 13 15 16 5 6 5 5 4 4 5 6 7 6 5 5 5 5 6 5 5 5 5 6 6 4 7 7 7 7 6 7 8 6
11 12 13 13 13 12 12 12 12 12 12 12 13 13 14 15 15 15 15 15 15 16 16 16 16 15 16 17 16 15 16 16 16 15 16 14 13 13 11 10 15 13 16 19 15 13 14 17 15 11 12 13 12 11 13 17 15 5 3 3 4 5 5 4 4 5 6 6 6 4 5 5 6 6 5 5 5 6 5 6 6 6 5 6 6 6 6
11 12 12 13 12 12 12 13 12 13 12 12 12 12 13 14 14 14 15 16 16 16 16 15 15 15 17 17 16 15 15 15 15 14 14 12 12 11 10 10 14 14 18 17 14 13 15 14 14 13 13 13 11 13 11 14 10 8 6 4 4 5 5 5 5 5 4 4 6 6 5 5 5 6 6 6 6 5 6 6 6 6 5 5 5 6 5
12 13 13 13 12 13 13 12 12 12 12 12 12 13 13 14 14 14 15 14 15 15 15 15 16 16 16 16 15 14 13 15 15 14 14 12 12 11 11 10 14 13 20 20 16 13 13 14 15 14 15 15 13 19 21 11 6 7 7 8 5 5 4 4 5 6 4 4 4 4 5 5 5 5 5 5 5 6 6 6 6 6 6 6 6 5 6
12 13 13 12 12 13 13 13 12 13 14 13 13 12 12 12 13 14 14 14 14 15 15 15 16 16 16 16 16 15 13 13 15 14 13 12 11 10 11 11 12 13 19 16 15 11 12 12 13 13 20 18 15 21 17 10 10 10 10 10 11 10 9 7 5 2 3 4 4 4 4 5 5 5 4 5 5 5 5 6 6 6 6 6 6 7 6
11 11 11 12 12 12 12 12 13 13 13 13 13 12 12 11 12 13 14 14 14 14 15 15 15 15 16 16 15 14 13 12 12 12 11 11 10 10 13 12 12 14 17 14 12 11 11 12 13 19 22 22 23 21 11 9 10 10 10 10 10 10 10 10 10 10 9 8 6 5 5 5 5 5 5 6 6 6 6 6 6 6 6 6 6 6 6
11 11 12 12 12 12 11 12 13 13 12 12 12 12 11 11 12 12 12 13 14 13 13 14 14 14 14 14 14 13 12 11 11 11 11 12 12 11 13 14 13 12 14 19 10 11 11 13 17 21 19 22 20 17 11 11 10 10 10 10 10 10 10 10 10 10 9 9 9 8 8 7 8 8 8 8 6 6 6 7 7 6 6 7 7 6 5
11 11 12 12 12 12 12 13 12 12 12 12 12 11 11 12 12 12 11 12 13 13 12 12 13 14 14 14 14 13 12 11 11 9 9 9 10 12 13 13 12 14 19 19 9 11 11 17 20 20 20 19 18 12 11 11 10 10 10 10 10 10 10 9 9 10 10 9 9 9 10 10 10 10 8 8 8 8 7 6 7 7 6 6 6 6 6
11 11 11 12 12 12 13 12 12 13 12 11 11 11 11 12 12 11 10 11 12 12 12 12 12 12 13 13 12 13 13 13 10 8 9 9 10 11 12 14 13 17 17 11 10 10 13 15 17 18 18 17 15 12 11 11 11 11 11 10 10 10 10 9 9 8 9 10 10 10 10 10 9 8 9 9 9 9 9 8 8 8 7 7 7 7 7
10 11 11 12 12 12 12 11 12 11 11 10 11 11 10 11 12 11 10 10 11 12 11 11 10 11 12 12 12 11 10 11 12 11 11 11 10 10 10 10 12 18 18 10 12 10 17 21 21 19 16 15 13 13 12 11 11 10 11 11 11 11 11 10 10 10 9 10 11 11 10 9 9 9 10 10 10 10 9 9 9 7 6 7 8 7 7
10 10 11 11 11 11 11 9 11 10 9 10 11 10 11 12 12 10 10 10 11 11 10 11 11 11 10 11 11 10 10 10 9 10 12 11 11 10 11 12 15 16 13 10 11 10 15 20 20 20 15 13 11 11 10 11 11 11 11 11 10 10 10 9 9 9 8 10 10 9 10 10 10 10 10 10 10 10 10 10 11 10 9 7 7 8 7
9 9 9 9 9 9 9 9 9 9 9 9 9 9 10 10 9 9 9 9 9 10 9 10 10 9 9 9 9 9 9 11 11 11 11 11 12 11 11 11 11 14 14 11 11 10 12 18 18 18 14 11 11 11 10 10 10 11 10 11 11 10 11 11 10 11 9 9 10 10 9 9 10 10 10 10 10 10 10 10 10 11 14 12 11 10 9
7 7 8 8 8 7 8 9 8 8 9 9 9 9 9 9 8 9 8 9 9 9 9 9 9 9 9 9 9 9 10 10 10 11 10 10 11 11 13 12 11 11 12 11 11 11 11 11 12 13 13 11 11 11 11 10 10 10 11 11 12 12 11 11 9 9 9 9 8 9 8 8 9 9 9 10 10 10 10 11 11 10 10 10 10 10 9
6 6 6 7 6 7 8 8 7 6 7 7 7 8 8 8 8 8 8 9 8 9 10 11 10 9 9 9 10 10 10 10 10 10 10 11 12 11 12 13 11 11 11 10 10 11 10 11 12 14 14 12 11 11 11 13 11 10 11 11 10 10 10 9 9 8 9 10 10 10 11 10 9 9 10 10 10 10 10 10 10 9 10 10 10 10 10
Wind_Direction
285 288 287 284 280 274 275 277 277 277 279 280 277 275 272 272 264 269 280 285 281 280 278 280 277 280 283 277 258 248 249 266 267 266 265 262 261 258 254 241 241 250 250 247 242 239 239 239 238 236 234 230 225 221 221 220 211 210 211 212 202 193 192 193 193 193 193 194 193 192 194 200 203 203 201 200 196 193 191 198 201 205 203 197 193 200 203
296 288 284 283 280 281 277 273 275 277 277 277 279 280 280 276 271 271 277 281 278 275 274 271 271 273 272 275 286 292 284 266 252 253 259 263 253 254 259 258 258 256 250 239 238 244 245 250 244 233 229 230 225 222 223 220 217 205 207 220 210 196 194 194 193 194 195 193 190 190 191 199 202 202 199 197 197 193 189 196 203 206 203 195 195 198 201
293 288 288 284 278 275 273 271 272 274 277 281 278 280 280 279 275 274 272 272 272 270 274 274 269 265 265 262 263 266 259 256 263 265 260 255 254 259 258 252 247 248 244 240 236 241 254 254 253 247 239 232 230 226 222 221 218 205 206 217 215 203 199 194 193 193 193 191 190 190 193 199 201 201 197 191 192 197 191 194 203 204 203 195 193 197 201
291 303 322 275 262 258 264 278 281 273 269 272 270 265 270 286 286 290 288 278 268 276 275 274 271 268 263 261 259 254 254 253 249 246 247 253 255 255 254 248 246 252 255 248 248 259 273 276 270 260 247 244 240 235 227 222 219 210 207 205 216 209 201 195 194 195 193 189 190 191 192 195 200 198 192 192 193 190 189 194 200 203 202 197 191 194 203
288 308 338 212 257 259 259 262 262 265 262 252 264 265 271 265 270 282 279 272 282 293 292 284 277 275 277 273 262 257 255 254 248 240 242 251 256 253 249 251 256 264 264 261 253 256 269 272 273 260 242 233 236 248 248 234 218 210 205 211 215 206 200 197 196 197 193 189 189 190 190 192 195 197 193 189 194 193 189 188 196 203 200 198 193 196 200
297 307 322 187 281 297 14 148 206 192 257 276 267 270 265 264 270 273 285 288 294 296 296 291 288 282 276 274 267 261 266 269 257 254 257 258 262 264 264 263 265 273 283 275 262 267 273 283 281 271 260 234 241 236 246 256 231 213 207 211 210 204 199 197 197 194 192 190 191 190 189 191 193 193 191 195 192 193 188 183 197 203 201 196 196 194 200
284 304 300 294 291 306 62 173 215 210 234 263 264 262 268 277 279 282 286 291 299 302 301 295 293 290 293 292 286 287 280 263 255 254 254 254 252 257 261 268 265 262 271 287 288 277 275 273 280 273 260 248 227 235 235 239 236 223 217 212 209 205 200 197 196 193 192 191 191 189 188 189 190 192 192 195 191 184 176 186 196 200 196 192 194 196 199
280 289 313 309 343 96 85 226 243 247 256 259 260 265 255 249 260 279 287 285 289 294 294 297 301 297 291 291 291 283 273 270 265 260 258 260 262 262 261 263 267 265 268 284 283 278 270 272 268 260 253 247 247 244 244 248 236 225 217 212 209 205 205 198 195 192 191 192 192 188 187 188 190 193 194 191 190 187 178 189 197 198 187 192 198 197 196
304 317 311 302 283 116 26 355 358 351 335 324 301 301 338 109 219 245 272 284 286 286 288 296 299 296 297 289 279 270 270 264 261 266 267 267 261 260 259 261 263 262 239 246 264 266 266 267 267 262 260 255 252 240 231 242 241 229 219 213 212 203 203 201 198 193 192 191 190 189 187 188 189 192 192 193 191 179 174 182 192 188 184 192 198 191 193
296 309 318 325 327 1 12 357 349 347 333 328 327 274 306 125 322 285 275 285 284 287 291 299 303 309 298 281 264 263 260 260 260 262 260 257 256 257 258 251 254 257 269 271 273 276 273 267 264 260 254 252 251 244 231 231 241 227 228 226 218 209 207 205 198 195 194 192 190 188 187 189 189 191 192 192 191 181 182 185 182 181 184 195 197 192 195
305 314 321 334 337 41 357 353 346 343 337 328 355 124 269 27 342 327 335 333 324 285 290 295 292 292 285 282 280 278 271 271 309 305 275 256 247 251 258 269 279 278 279 284 284 284 283 276 267 262 258 259 256 245 237 231 227 231 214 218 220 221 211 203 200 198 196 196 192 189 190 188 185 191 190 190 182 173 183 182 179 181 187 195 197 191 200
308 324 320 343 52 348 358 350 346 344 332 323 294 315 346 340 329 331 336 334 333 324 302 292 289 287 289 291 293 299 291 287 288 295 305 309 303 280 270 264 270 276 277 276 281 274 269 267 264 260 262 256 247 243 238 235 229 225 226 209 209 219 219 208 203 199 199 198 194 190 189 189 188 191 185 176 157 172 185 190 180 178 191 194 193 199 200
322 315 337 315 122 91 0 353 344 344 324 300 355 352 331 326 324 329 333 327 330 332 326 317 317 307 289 282 285 288 283 277 267 230 228 241 250 262 274 272 269 270 273 279 278 278 275 274 275 279 276 270 256 245 238 235 234 226 220 215 210 208 219 211 208 210 207 208 206 198 194 188 183 185 180 167 171 178 182 184 177 184 188 195 199 201 196
334 336 335 343 350 42 348 349 347 350 334 11 345 323 325 317 324 327 330 330 327 335 336 328 309 289 279 272 274 275 267 260 259 259 253 259 268 270 270 265 264 265 273 274 274 276 271 270 269 262 265 258 254 254 250 244 241 235 228 219 213 212 208 209 210 210 211 205 202 201 192 182 168 165 158 169 179 182 186 185 167 178 183 193 197 198 196
326 336 338 356 352 348 351 342 343 10 5 346 315 326 320 325 327 327 327 324 323 332 335 323 311 304 303 305 294 282 266 250 250 252 253 257 260 263 259 259 258 259 263 271 278 278 279 276 269 260 266 269 257 250 249 257 266 259 240 222 212 211 209 207 206 207 205 200 191 193 174 171 166 160 169 179 183 184 185 182 168 165 175 187 194 193 195
328 331 351 356 337 314 327 346 349 352 351 334 338 333 328 330 329 327 319 318 324 325 328 326 322 318 326 325 310 303 280 264 252 246 249 253 259 258 262 265 264 260 270 275 275 275 269 264 256 258 266 269 265 245 243 249 270 281 265 232 214 209 207 207 203 202 201 197 182 173 156 154 163 162 174 182 185 182 180 174 165 168 178 186 182 173 183
339 327 307 314 319 330 346 344 345 345 345 344 341 341 339 330 326 324 309 315 323 326 330 333 332 332 341 334 324 313 303 282 273 256 245 252 255 251 255 258 263 265 265 269 273 277 273 266 248 239 243 256 234 219 230 228 210 235 272 268 226 211 207 204 200 199 197 185 174 176 154 154 165 177 182 187 183 173 182 177 178 176 174 173 180 181 182
323 293 270 288 312 342 339 339 350 341 344 345 343 344 336 324 316 319 318 321 324 324 335 344 339 337 337 331 329 331 327 301 283 280 283 279 274 269 268 273 280 290 292 287 278 271 265 262 257 250 249 250 229 226 231 221 214 210 233 258 250 220 211 205 200 195 185 179 177 177 157 165 171 183 188 187 182 178 175 191 187 183 182 181 185 188 190
328 343 357 348 349 340 334 339 344 344 346 342 340 342 336 331 336 334 326 323 316 318 331 348 341 337 340 340 342 354 347 334 329 328 319 324 316 313 306 309 314 295 278 269 266 267 266 260 250 247 250 247 249 240 214 217 216 227 224 245 257 244 213 204 194 186 181 181 180 173 162 159 172 185 184 178 173 175 189 189 183 178 171 181 188 188 189
328 324 338 351 344 330 328 344 343 344 341 339 341 343 336 339 340 332 327 326 323 326 333 345 345 337 342 353 351 349 351 15 5 5 339 317 299 286 284 273 279 289 280 263 260 267 276 265 255 241 238 256 250 217 273 233 241 248 255 246 244 237 214 199 193 185 190 171 171 172 173 179 186 185 169 163 171 181 188 186 185 174 176 185 188 183 181
320 318 347 344 331 325 339 338 344 339 335 333 337 337 339 345 347 334 329 327 325 326 340 336 347 348 345 351 355 351 342 4 11 350 316 296 291 286 273 282 289 284 283 283 278 267 277 287 270 250 235 227 246 134 199 255 242 233 286 290 283 251 227 202 197 189 185 165 176 173 177 183 186 176 168 175 182 182 184 188 188 186 186 185 186 188 187
332 342 338 345 339 329 327 332 335 332 331 333 336 333 336 338 340 335 332 329 331 331 336 340 349 353 350 348 347 350 345 354 3 351 350 348 338 316 305 298 296 317 322 298 289 282 272 273 266 252 246 218 342 114 168 216 200 224 231 251 256 269 285 248 211 197 185 167 171 173 178 179 176 146 79 174 190 191 185 184 172 169 172 180 180 176 180
317 322 327 335 322 307 313 323 326 329 331 333 333 334 338 338 336 343 335 331 339 340 340 346 350 352 351 349 341 346 355 347 353 0 357 357 0 341 327 321 319 327 345 328 332 331 327 328 307 296 297 349 42 73 164 189 194 195 179 238 250 244 219 258 246 195 185 176 177 173 173 166 162 149 134 50 41 41 7 176 170 175 184 183 176 184 186
303 320 324 325 319 313 315 316 328 331 338 333 330 331 335 334 342 346 332 332 336 333 338 346 352 353 350 350 350 342 346 350 351 350 358 354 359 347 330 337 351 12 15 346 0 4 357 352 343 349 350 6 21 11 18 101 168 183 188 190 241 245 250 228 246 207 183 177 178 179 171 165 156 150 142 134 94 39 23 146 166 170 180 174 174 177 176
319 321 320 323 318 308 309 325 329 330 331 331 333 336 338 333 337 336 335 338 336 336 338 344 348 354 355 349 353 349 345 348 351 342 354 360 360 350 338 336 16 44 39 358 334 6 19 28 21 12 11 13 11 13 1 8 66 176 199 205 203 247 249 247 224 223 179 164 146 160 156 159 162 152 153 155 155 156 47 30 65 158 172 169 170 173 173
324 328 327 322 312 316 330 325 327 333 329 335 336 336 334 336 338 336 339 336 330 335 341 343 343 348 359 353 346 346 347 346 355 358 358 1 355 351 347 343 353 41 63 48 328 358 37 30 17 11 16 12 12 7 9 8 23 26 15 94 169 175 215 249 201 208 230 174 148 150 161 158 159 157 162 169 172 157 144 146 74 45 43 44 170 152 136
341 344 333 328 328 328 331 337 330 331 335 337 339 334 335 338 336 334 343 342 342 343 342 342 342 341 353 353 343 342 347 343 347 355 347 349 352 342 338 334 6 21 31 30 19 9 37 36 37 16 7 6 8 6 3 4 26 33 26 26 28 85 63 37 296 272 212 197 179 176 176 171 169 161 153 160 153 158 166 164 164 167 174 126 94 128 119
350 341 342 331 325 326 329 332 330 330 334 337 338 339 339 338 337 342 346 350 351 347 342 346 344 343 348 351 348 348 349 353 351 344 349 347 343 338 345 359 14 18 24 14 11 19 29 26 18 21 18 5 4 7 8 1 7 21 25 22 21 23 25 44 32 322 347 119 191 180 181 180 178 179 158 156 156 173 172 165 171 166 130 120 132 141 141
341 336 329 322 322 327 326 324 326 335 335 338 340 340 343 344 345 346 348 350 347 345 344 343 343 343 342 343 350 342 346 354 351 351 349 352 348 344 347 9 17 19 23 19 15 14 16 20 19 20 18 13 5 3 1 2 11 13 15 25 24 25 22 49 103 127 317 306 184 152 102 120 144 150 154 156 165 167 166 164 144 129 129 131 126 87 74
334 328 328 330 338 337 333 335 337 337 339 342 343 343 345 347 346 347 345 347 348 344 344 342 342 342 338 334 340 337 351 349 359 356 359 352 345 344 352 8 19 23 18 16 17 18 16 12 7 7 7 6 11 12 6 2 1 0 9 10 27 9 2 9 25 64 218 117 55 83 106 119 145 149 150 152 161 163 160 155 143 141 141 146 154 164 157
327 329 331 333 340 338 337 338 339 339 341 342 342 342 344 347 346 345 345 346 347 343 341 341 340 339 337 332 326 341 343 356 0 3 358 355 349 350 349 356 23 18 17 12 8 12 17 11 3 354 352 1 352 2 11 10 3 9 17 11 21 62 27 358 9 357 37 94 140 149 128 124 133 142 146 149 152 156 156 148 151 150 154 160 172 169 155
327 331 333 342 339 339 338 341 339 340 341 342 341 344 345 345 344 344 343 345 342 339 339 340 343 339 332 328 326 344 351 356 359 359 0 5 2 360 1 352 5 30 23 17 13 10 9 11 5 353 342 357 356 352 0 11 6 16 16 22 20 18 26 350 2 28 19 39 111 129 133 139 139 147 150 157 162 155 156 149 156 164 170 166 175 175 152
337 337 342 342 341 339 339 340 339 338 340 340 339 337 337 338 339 340 342 342 335 340 342 341 338 335 331 327 324 338 350 357 357 359 359 4 13 12 2 357 353 15 28 19 14 13 8 4 357 350 344 355 9 357 352 357 12 12 15 19 23 35 37 36 2 5 32 29 46 100 150 149 152 167 177 173 171 169 164 159 162 171 175 178 179 169 161
336 333 330 331 333 331 332 333 336 334 334 334 335 336 335 337 339 339 342 340 336 339 341 339 334 332 333 331 334 341 349 357 359 354 355 357 5 14 10 5 4 7 19 21 13 8 1 357 352 342 331 342 18 10 0 351 360 16 11 16 20 23 28 26 26 30 29 26 34 37 50 82 138 166 164 161 164 171 164 161 163 171 170 163 144 149 146
336 332 329 327 329 330 331 331 331 332 333 334 335 336 337 336 340 338 340 338 339 337 335 336 334 334 335 337 341 338 347 356 352 350 350 352 359 12 11 10 7 8 11 19 14 3 355 354 347 339 327 348 20 15 11 354 356 13 17 34 30 34 32 33 31 45 46 43 37 41 51 56 67 65 107 153 161 140 143 155 163 167 156 142 134 115 136
324 324 326 328 329 332 331 331 331 334 334 333 334 334 337 337 338 338 340 338 336 335 338 337 337 337 339 341 340 335 345 352 347 343 350 351 351 2 18 15 12 10 4 1 6 355 351 357 343 336 329 8 18 16 10 348 1 22 16 25 34 37 45 41 33 31 38 55 53 53 57 56 56 51 66 63 72 111 139 139 137 122 123 129 127 129 137
330 327 325 329 329 330 330 332 335 335 335 335 336 336 338 339 339 338 337 337 337 339 339 337 339 342 341 339 335 332 341 345 345 338 345 350 346 0 22 20 17 12 5 2 348 338 349 355 338 332 348 1 1 7 0 358 354 357 17 15 29 34 34 41 39 42 42 55 68 80 83 80 80 81 75 85 96 106 110 113 103 102 101 117 125 133 141
327 326 329 330 331 329 332 334 336 336 338 336 338 341 341 339 339 338 339 339 338 340 337 335 339 339 336 334 337 338 339 343 346 343 342 354 352 360 31 28 23 12 9 352 330 326 355 350 336 346 360 357 353 352 349 346 345 3 17 17 23 24 46 54 50 49 46 52 51 63 67 82 75 68 79 83 86 84 90 92 96 104 103 110 121 133 142
328 331 331 331 328 331 333 333 336 336 340 338 337 339 343 341 338 340 341 342 341 340 337 338 338 340 343 343 343 340 340 340 346 343 344 350 355 351 35 48 30 22 14 340 330 333 357 352 341 351 355 350 343 345 341 342 332 1 29 29 31 42 19 56 67 64 56 59 55 52 60 65 74 76 71 77 81 76 64 77 87 100 109 117 123 132 133
330 331 332 330 328 333 332 335 334 335 336 339 338 340 342 343 342 342 342 342 342 342 341 341 343 345 343 344 343 341 336 338 342 346 346 349 357 355 351 25 17 8 7 347 341 342 353 350 351 357 351 342 335 337 331 331 321 336 44 46 32 21 32 38 47 70 85 85 89 84 78 69 73 77 79 82 82 82 88 90 91 97 105 117 124 124 124
329 331 330 330 330 331 333 331 332 332 335 338 341 338 340 342 342 343 345 343 342 342 345 346 349 344 343 343 343 339 336 337 340 349 349 353 6 360 357 357 358 355 0 345 334 340 353 357 358 353 352 337 329 327 327 319 328 9 354 50 58 59 37 31 39 28 37 54 82 82 86 100 107 110 107 102 97 92 90 90 100 107 111 109 114 118 118
332 331 330 331 332 332 331 331 330 331 335 337 339 337 338 340 342 342 345 344 341 341 344 347 352 345 343 342 342 341 343 342 340 347 350 358 6 5 355 355 347 353 348 340 342 353 358 357 355 356 350 337 327 324 323 310 5 23 12 2 19 61 88 65 54 49 28 29 40 82 90 93 89 97 103 104 105 108 112 108 106 105 111 108 109 109 108
331 330 331 331 331 331 330 328 330 331 332 335 339 337 337 340 340 341 343 346 344 344 344 346 348 348 348 348 346 347 346 345 340 344 348 353 357 27 18 351 345 352 343 341 344 1 357 2 352 356 339 337 329 327 323 354 11 12 20 17 14 8 15 17 28 42 60 65 56 54 69 85 90 89 84 93 105 107 100 93 90 91 94 108 115 116 115
328 328 331 330 331 330 327 329 332 333 333 335 335 337 341 341 340 339 341 346 348 346 345 346 349 349 349 350 351 348 346 345 339 346 347 346 345 2 14 359 352 342 340 342 346 3 357 358 354 344 341 343 342 342 353 22 13 15 20 23 18 15 14 13 13 11 8 27 39 68 94 106 108 103 94 84 74 75 80 81 88 93 102 101 99 101 111
328 329 329 331 328 327 329 332 330 330 330 328 330 336 341 341 339 339 340 344 346 345 346 348 349 350 349 350 349 348 345 345 340 346 357 347 343 341 355 354 351 346 337 331 354 7 2 356 348 349 352 352 351 355 16 18 16 14 16 22 22 20 20 17 13 11 8 9 8 2 1 36 54 69 82 82 87 84 83 87 83 80 77 80 89 100 102
324 325 327 327 329 329 331 329 326 326 324 327 329 334 339 341 339 335 340 343 343 346 347 346 347 351 351 349 346 345 346 348 347 357 6 348 338 329 339 341 347 346 333 328 14 7 1 348 350 354 359 1 2 12 19 15 16 15 16 18 25 23 21 18 14 16 11 9 7 16 21 31 36 34 40 60 64 66 74 88 105 105 100 93 85 79 75
322 322 322 326 325 327 329 326 327 326 326 327 332 333 336 337 337 330 336 340 342 342 344 345 348 351 353 353 353 350 348 344 347 360 358 348 340 334 336 339 350 348 339 342 13 13 12 354 352 353 6 7 15 21 20 21 20 19 17 22 21 25 20 16 13 16 14 14 8 11 18 25 28 27 19 27 39 43 43 46 61 78 85 89 86 81 76
320 318 320 324 321 323 324 326 327 327 327 331 333 329 333 335 332 326 335 341 341 340 341 346 347 349 353 356 355 357 1 351 338 342 357 349 346 340 343 346 350 352 343 346 0 16 14 358 354 355 5 14 24 26 22 23 23 23 23 23 26 22 20 17 11 11 15 17 17 21 18 18 23 26 28 32 38 38 40 36 27 29 61 76 81 84 83
317 319 323 318 316 320 326 328 324 324 328 333 330 331 336 335 325 330 342 345 342 340 339 345 348 349 350 352 353 354 359 1 356 337 338 346 346 345 347 343 351 355 350 353 1 2 5 1 358 355 3 19 25 24 26 27 25 27 27 26 24 23 18 16 11 5 14 22 23 22 24 23 25 28 31 29 28 28 31 37 37 30 22 42 76 90 90
320 325 319 316 322 329 336 331 325 327 327 328 328 330 334 332 328 337 337 343 342 337 338 344 345 347 348 348 350 352 353 352 353 351 345 349 350 350 352 351 351 357 360 359 3 2 4 3 4 3 6 18 19 23 28 27 28 27 30 29 28 25 23 20 12 8 9 25 32 24 19 28 32 32 34 35 28 28 27 30 33 25 24 35 35 42 48
321 314 306 320 324 326 325 318 328 328 324 328 328 332 331 331 330 326 328 351 340 341 341 341 340 345 349 349 349 347 349 350 349 356 353 353 352 351 355 356 354 358 4 6 8 7 6 8 8 5 6 12 17 17 21 25 31 32 31 33 32 33 28 21 18 13 14 21 35 34 22 17 23 27 34 38 34 34 30 29 28 32 32 35 34 38 42
296 296 320 323 312 317 312 319 329 330 328 328 331 334 333 329 322 326 331 353 341 339 342 340 340 347 350 348 348 347 351 349 350 354 356 0 356 354 354 357 1 2 4 8 10 9 9 9 10 11 12 14 16 14 12 16 28 33 33 33 32 26 20 14 9 13 21 24 28 32 31 27 26 30 31 31 34 39 39 37 37 38 35 34 33 31 33